Saint Bonnet de Bellac- Haute Vienne - France
Donnes mto: dimanche, 20/05/2012
Date Horaire Temp. E. Hum. E. P.atmo. Pluie Vent Direction Direction Ensoleilleme Solaire P. de rose Temp au vent Rafales
20/05/2012 00:00 13,5 C 90 % 1006,2 hPa 0,0 mm 2,5 km/h (1 Bft) S-SE 157 0 min 0 W/m 11,9 C 13,5 C 4,3 km/h (1 Bft)
20/05/2012 00:10 13,5 C 90 % 1006,1 hPa 0,0 mm 3,2 km/h (1 Bft) SE 135 0 min 0 W/m 11,9 C 13,5 C 4,3 km/h (1 Bft)
20/05/2012 00:20 13,4 C 90 % 1006,1 hPa 0,0 mm 2,2 km/h (1 Bft) SE 135 0 min 0 W/m 11,8 C 13,4 C 6,5 km/h (2 Bft)
20/05/2012 00:30 13,3 C 90 % 1006,1 hPa 0,0 mm 1,1 km/h (1 Bft) S-SE 157 0 min 0 W/m 11,7 C 13,3 C 3,2 km/h (1 Bft)
20/05/2012 00:40 13,3 C 90 % 1005,9 hPa 0,0 mm 2,2 km/h (1 Bft) SE 135 0 min 0 W/m 11,7 C 13,3 C 4,3 km/h (1 Bft)
20/05/2012 00:50 13,2 C 90 % 1006,0 hPa 0,0 mm 2,9 km/h (1 Bft) E-SE 112 0 min 0 W/m 11,6 C 13,2 C 4,0 km/h (1 Bft)
20/05/2012 01:00 13,1 C 90 % 1005,9 hPa 0,0 mm 1,8 km/h (1 Bft) SE 135 0 min 0 W/m 11,5 C 13,1 C 4,0 km/h (1 Bft)
20/05/2012 01:10 12,9 C 90 % 1005,9 hPa 0,0 mm 0,0 km/h (0 Bft) SE 135 0 min 0 W/m 11,3 C 12,9 C 3,2 km/h (1 Bft)
20/05/2012 01:20 12,8 C 90 % 1005,9 hPa 0,0 mm 1,1 km/h (1 Bft) S-SE 157 0 min 0 W/m 11,2 C 12,8 C 4,0 km/h (1 Bft)
20/05/2012 01:30 12,6 C 90 % 1005,8 hPa 0,0 mm 1,4 km/h (1 Bft) S-SE 157 0 min 0 W/m 11,0 C 12,6 C 4,3 km/h (1 Bft)
20/05/2012 01:40 12,6 C 90 % 1005,6 hPa 0,0 mm 0,4 km/h (0 Bft) SE 135 0 min 0 W/m 11,0 C 12,6 C 2,9 km/h (1 Bft)
20/05/2012 01:50 12,5 C 90 % 1005,4 hPa 0,0 mm 0,0 km/h (0 Bft) S-SE 157 0 min 0 W/m 10,9 C 12,5 C 0,0 km/h (0 Bft)
20/05/2012 02:00 12,4 C 90 % 1005,4 hPa 0,0 mm 0,0 km/h (0 Bft) S-SE 157 0 min 0 W/m 10,8 C 12,4 C 0,0 km/h (0 Bft)
20/05/2012 02:10 12,4 C 90 % 1005,4 hPa 0,0 mm 0,0 km/h (0 Bft) S-SE 157 0 min 0 W/m 10,8 C 12,4 C 0,0 km/h (0 Bft)
20/05/2012 02:20 12,3 C 90 % 1005,4 hPa 0,0 mm 0,0 km/h (0 Bft) S-SE 157 0 min 0 W/m 10,7 C 12,3 C 0,0 km/h (0 Bft)
20/05/2012 02:30 12,3 C 90 % 1005,2 hPa 0,0 mm 0,4 km/h (0 Bft) S-SE 157 0 min 0 W/m 10,7 C 12,3 C 3,6 km/h (1 Bft)
20/05/2012 02:40 12,3 C 90 % 1005,2 hPa 0,0 mm 0,0 km/h (0 Bft) S-SE 157 0 min 0 W/m 10,7 C 12,3 C 0,0 km/h (0 Bft)
20/05/2012 02:50 12,2 C 90 % 1005,1 hPa 0,0 mm 0,0 km/h (0 Bft) S-SE 157 0 min 0 W/m 10,6 C 12,2 C 0,0 km/h (0 Bft)
20/05/2012 03:02 12,1 C 90 % 1005,0 hPa 0,0 mm 0,0 km/h (0 Bft) S-SE 157 0 min 0 W/m 10,5 C 12,1 C 0,0 km/h (0 Bft)
20/05/2012 03:10 12,1 C 90 % 1004,9 hPa 0,0 mm 0,0 km/h (0 Bft) S-SE 157 0 min 0 W/m 10,5 C 12,1 C 0,0 km/h (0 Bft)
20/05/2012 03:20 12,1 C 90 % 1004,8 hPa 0,0 mm 0,0 km/h (0 Bft) S-SE 157 0 min 0 W/m 10,5 C 12,1 C 0,0 km/h (0 Bft)
20/05/2012 03:30 12,0 C 90 % 1004,7 hPa 0,0 mm 0,4 km/h (0 Bft) S-SE 157 0 min 0 W/m 10,4 C 12,0 C 0,4 km/h (0 Bft)
20/05/2012 03:40 11,9 C 90 % 1004,5 hPa 0,0 mm 0,0 km/h (0 Bft) S-SE 157 0 min 0 W/m 10,3 C 11,9 C 0,0 km/h (0 Bft)
20/05/2012 03:50 11,9 C 90 % 1004,5 hPa 0,0 mm 0,0 km/h (0 Bft) S-SE 157 0 min 0 W/m 10,3 C 11,9 C 0,0 km/h (0 Bft)
20/05/2012 04:00 11,9 C 90 % 1004,5 hPa 0,0 mm 0,0 km/h (0 Bft) S-SE 157 0 min 0 W/m 10,3 C 11,9 C 0,0 km/h (0 Bft)
20/05/2012 04:10 11,9 C 90 % 1004,3 hPa 0,0 mm 0,0 km/h (0 Bft) S-SE 157 0 min 0 W/m 10,3 C 11,9 C 0,0 km/h (0 Bft)
20/05/2012 04:20 11,9 C 90 % 1004,4 hPa 0,0 mm 2,2 km/h (1 Bft) SE 135 0 min 0 W/m 10,3 C 11,9 C 3,2 km/h (1 Bft)
20/05/2012 04:30 11,8 C 91 % 1004,3 hPa 0,0 mm 1,4 km/h (1 Bft) E 90 0 min 0 W/m 10,4 C 11,8 C 3,6 km/h (1 Bft)
20/05/2012 04:40 11,8 C 91 % 1004,2 hPa 0,0 mm 1,1 km/h (1 Bft) E 90 0 min 0 W/m 10,4 C 11,8 C 3,6 km/h (1 Bft)
20/05/2012 04:50 11,8 C 91 % 1004,0 hPa 0,0 mm 1,1 km/h (1 Bft) E-SE 112 0 min 0 W/m 10,4 C 11,8 C 4,0 km/h (1 Bft)
20/05/2012 05:00 11,8 C 91 % 1004,0 hPa 0,0 mm 3,2 km/h (1 Bft) E-SE 112 0 min 0 W/m 10,4 C 11,8 C 4,3 km/h (1 Bft)
20/05/2012 05:10 11,8 C 91 % 1003,9 hPa 0,0 mm 2,2 km/h (1 Bft) E 90 0 min 0 W/m 10,4 C 11,8 C 4,0 km/h (1 Bft)
20/05/2012 05:20 11,8 C 91 % 1003,8 hPa 0,0 mm 0,4 km/h (0 Bft) E-SE 112 0 min 0 W/m 10,4 C 11,8 C 3,2 km/h (1 Bft)
20/05/2012 05:30 11,8 C 91 % 1003,7 hPa 0,0 mm 2,9 km/h (1 Bft) SE 135 0 min 0 W/m 10,4 C 11,8 C 4,0 km/h (1 Bft)
20/05/2012 05:40 11,7 C 91 % 1003,6 hPa 0,1 mm 0,0 km/h (0 Bft) E-SE 112 0 min 0 W/m 10,3 C 11,7 C 3,2 km/h (1 Bft)
20/05/2012 05:50 11,7 C 91 % 1003,5 hPa 0,0 mm 0,0 km/h (0 Bft) E-SE 112 0 min 0 W/m 10,3 C 11,7 C 0,0 km/h (0 Bft)
20/05/2012 06:00 11,7 C 92 % 1003,4 hPa 0,1 mm 0,0 km/h (0 Bft) E-SE 112 0 min 0 W/m 10,4 C 11,7 C 0,0 km/h (0 Bft)
20/05/2012 06:10 11,7 C 92 % 1003,4 hPa 0,0 mm 0,4 km/h (0 Bft) E-SE 112 0 min 0 W/m 10,4 C 11,7 C 2,9 km/h (1 Bft)
20/05/2012 06:20 11,7 C 92 % 1003,4 hPa 0,1 mm 0,0 km/h (0 Bft) SE 135 0 min 0 W/m 10,4 C 11,7 C 3,2 km/h (1 Bft)
20/05/2012 06:30 11,7 C 92 % 1003,5 hPa 0,0 mm 0,0 km/h (0 Bft) SE 135 0 min 0 W/m 10,4 C 11,7 C 0,0 km/h (0 Bft)
20/05/2012 06:40 11,7 C 92 % 1003,5 hPa 0,1 mm 0,4 km/h (0 Bft) SE 135 0 min 0 W/m 10,4 C 11,7 C 0,4 km/h (0 Bft)
20/05/2012 06:50 11,7 C 92 % 1003,4 hPa 0,0 mm 0,0 km/h (0 Bft) SE 135 0 min 0 W/m 10,4 C 11,7 C 0,0 km/h (0 Bft)
20/05/2012 07:00 11,7 C 92 % 1003,4 hPa 0,1 mm 0,4 km/h (0 Bft) SE 135 0 min 0 W/m 10,4 C 11,7 C 3,6 km/h (1 Bft)
20/05/2012 07:10 11,6 C 92 % 1003,4 hPa 0,1 mm 2,2 km/h (1 Bft) E-SE 112 0 min 0 W/m 10,3 C 11,6 C 4,3 km/h (1 Bft)
20/05/2012 07:20 11,7 C 92 % 1003,3 hPa 0,1 mm 1,1 km/h (1 Bft) E-SE 112 0 min 0 W/m 10,4 C 11,7 C 4,3 km/h (1 Bft)
20/05/2012 07:30 11,6 C 92 % 1003,2 hPa 0,1 mm 0,4 km/h (0 Bft) E-SE 112 0 min 0 W/m 10,3 C 11,6 C 4,0 km/h (1 Bft)
20/05/2012 07:40 11,6 C 92 % 1003,2 hPa 0,1 mm 0,0 km/h (0 Bft) E-SE 112 0 min 0 W/m 10,3 C 11,6 C 0,0 km/h (0 Bft)
20/05/2012 07:50 11,6 C 92 % 1003,2 hPa 0,1 mm 0,0 km/h (0 Bft) E-SE 112 0 min 0 W/m 10,3 C 11,6 C 0,0 km/h (0 Bft)
20/05/2012 08:00 11,6 C 92 % 1003,2 hPa 0,1 mm 2,5 km/h (1 Bft) E-SE 112 0 min 0 W/m 10,3 C 11,6 C 3,6 km/h (1 Bft)
20/05/2012 08:10 11,6 C 92 % 1003,2 hPa 0,1 mm 0,0 km/h (0 Bft) E-SE 112 0 min 0 W/m 10,3 C 11,6 C 0,0 km/h (0 Bft)
20/05/2012 08:20 11,8 C 92 % 1003,2 hPa 0,1 mm 1,1 km/h (1 Bft) E-SE 112 0 min 0 W/m 10,5 C 11,8 C 4,3 km/h (1 Bft)
20/05/2012 08:30 11,8 C 92 % 1003,2 hPa 0,1 mm 0,4 km/h (0 Bft) E-SE 112 0 min 0 W/m 10,5 C 11,8 C 0,4 km/h (0 Bft)
20/05/2012 08:40 11,8 C 92 % 1003,2 hPa 0,1 mm 1,4 km/h (1 Bft) SE 135 0 min 0 W/m 10,5 C 11,8 C 1,4 km/h (1 Bft)
20/05/2012 08:50 12,0 C 92 % 1003,2 hPa 0,1 mm 0,0 km/h (0 Bft) SE 135 0 min 0 W/m 10,7 C 12,0 C 0,0 km/h (0 Bft)
20/05/2012 09:00 12,2 C 92 % 1003,2 hPa 0,0 mm 1,1 km/h (1 Bft) S-SE 157 0 min 0 W/m 10,9 C 12,2 C 4,3 km/h (1 Bft)
20/05/2012 09:10 12,3 C 92 % 1003,1 hPa 0,0 mm 0,0 km/h (0 Bft) S-SE 157 0 min 0 W/m 11,0 C 12,3 C 0,0 km/h (0 Bft)
20/05/2012 09:20 12,4 C 92 % 1003,0 hPa 0,0 mm 0,0 km/h (0 Bft) S-SE 157 0 min 0 W/m 11,1 C 12,4 C 0,0 km/h (0 Bft)
20/05/2012 09:30 12,6 C 92 % 1003,1 hPa 0,1 mm 0,0 km/h (0 Bft) N 360 0 min 0 W/m 11,3 C 12,6 C 0,0 km/h (0 Bft)
20/05/2012 09:40 12,8 C 92 % 1003,2 hPa 0,0 mm 0,0 km/h (0 Bft) S-SE 157 0 min 0 W/m 11,5 C 12,8 C 0,0 km/h (0 Bft)
20/05/2012 09:50 13,1 C 92 % 1003,1 hPa 0,0 mm 0,0 km/h (0 Bft) S-SE 157 0 min 0 W/m 11,8 C 13,1 C 0,0 km/h (0 Bft)
20/05/2012 10:00 13,3 C 92 % 1002,9 hPa 0,0 mm 0,4 km/h (0 Bft) S-SE 157 0 min 0 W/m 12,0 C 13,3 C 0,4 km/h (0 Bft)
20/05/2012 10:10 13,4 C 92 % 1002,9 hPa 0,0 mm 0,0 km/h (0 Bft) S-SE 157 0 min 0 W/m 12,1 C 13,4 C 0,0 km/h (0 Bft)
20/05/2012 10:20 13,8 C 92 % 1002,8 hPa 0,0 mm 0,7 km/h (0 Bft) S-SO 202 0 min 0 W/m 12,5 C 13,8 C 3,2 km/h (1 Bft)
20/05/2012 10:30 14,1 C 91 % 1002,6 hPa 0,0 mm 0,0 km/h (0 Bft) SO 225 0 min 0 W/m 12,7 C 14,1 C 0,0 km/h (0 Bft)
20/05/2012 10:40 14,7 C 91 % 1002,7 hPa 0,0 mm 0,0 km/h (0 Bft) N-NO 337 0 min 0 W/m 13,2 C 14,7 C 0,0 km/h (0 Bft)
20/05/2012 10:50 15,1 C 89 % 1002,7 hPa 0,0 mm 0,0 km/h (0 Bft) SO 225 0 min 0 W/m 13,3 C 15,1 C 0,0 km/h (0 Bft)
20/05/2012 11:00 15,2 C 87 % 1002,7 hPa 0,0 mm 0,0 km/h (0 Bft) SO 225 0 min 0 W/m 13,0 C 15,2 C 0,0 km/h (0 Bft)
20/05/2012 11:10 14,9 C 86 % 1002,8 hPa 0,0 mm 0,4 km/h (0 Bft) O-SO 247 0 min 0 W/m 12,6 C 14,9 C 0,4 km/h (0 Bft)
20/05/2012 11:20 14,4 C 85 % 1002,7 hPa 0,0 mm 0,7 km/h (0 Bft) O-SO 247 0 min 0 W/m 11,9 C 14,4 C 4,0 km/h (1 Bft)
20/05/2012 11:30 14,0 C 86 % 1002,9 hPa 0,0 mm 0,0 km/h (0 Bft) O-SO 247 0 min 0 W/m 11,7 C 14,0 C 0,0 km/h (0 Bft)
20/05/2012 11:40 13,6 C 87 % 1002,9 hPa 0,0 mm 0,0 km/h (0 Bft) O-NO 292 0 min 0 W/m 11,5 C 13,6 C 0,0 km/h (0 Bft)
20/05/2012 11:50 13,4 C 88 % 1002,9 hPa 0,0 mm 1,1 km/h (1 Bft) N-NO 337 0 min 0 W/m 11,5 C 13,4 C 3,2 km/h (1 Bft)
20/05/2012 12:00 13,3 C 88 % 1002,8 hPa 0,0 mm 0,0 km/h (0 Bft) O-SO 247 0 min 0 W/m 11,4 C 13,3 C 0,0 km/h (0 Bft)
20/05/2012 12:10 13,2 C 88 % 1002,8 hPa 0,0 mm 0,4 km/h (0 Bft) O-NO 292 0 min 0 W/m 11,3 C 13,2 C 1,4 km/h (1 Bft)
20/05/2012 12:20 13,2 C 89 % 1002,8 hPa 0,0 mm 1,8 km/h (1 Bft) NO 315 0 min 0 W/m 11,4 C 13,2 C 1,8 km/h (1 Bft)
20/05/2012 12:30 13,3 C 89 % 1002,8 hPa 0,0 mm 0,7 km/h (0 Bft) O 270 0 min 0 W/m 11,5 C 13,3 C 4,0 km/h (1 Bft)
20/05/2012 12:40 13,4 C 89 % 1002,8 hPa 0,0 mm 0,0 km/h (0 Bft) O-NO 292 0 min 0 W/m 11,6 C 13,4 C 0,0 km/h (0 Bft)
20/05/2012 12:50 13,4 C 88 % 1003,0 hPa 0,0 mm 0,0 km/h (0 Bft) O 270 0 min 0 W/m 11,5 C 13,4 C 0,0 km/h (0 Bft)
20/05/2012 13:00 13,4 C 88 % 1002,8 hPa 0,0 mm 0,7 km/h (0 Bft) N-NO 337 0 min 0 W/m 11,5 C 13,4 C 3,6 km/h (1 Bft)
20/05/2012 13:10 13,4 C 88 % 1002,8 hPa 0,0 mm 0,4 km/h (0 Bft) SO 225 0 min 0 W/m 11,5 C 13,4 C 3,6 km/h (1 Bft)
20/05/2012 13:20 13,4 C 88 % 1002,7 hPa 0,0 mm 1,1 km/h (1 Bft) O-SO 247 0 min 0 W/m 11,5 C 13,4 C 4,3 km/h (1 Bft)
20/05/2012 13:30 13,4 C 88 % 1002,7 hPa 0,0 mm 1,4 km/h (1 Bft) O 270 0 min 0 W/m 11,5 C 13,4 C 3,6 km/h (1 Bft)
20/05/2012 13:40 13,3 C 88 % 1002,7 hPa 0,0 mm 1,1 km/h (1 Bft) SO 225 0 min 0 W/m 11,4 C 13,3 C 1,1 km/h (1 Bft)
20/05/2012 13:50 13,3 C 88 % 1002,8 hPa 0,0 mm 0,7 km/h (0 Bft) O-SO 247 0 min 0 W/m 11,4 C 13,3 C 0,7 km/h (0 Bft)
20/05/2012 14:00 13,2 C 88 % 1002,8 hPa 0,0 mm 0,0 km/h (0 Bft) O 270 0 min 0 W/m 11,3 C 13,2 C 0,0 km/h (0 Bft)
20/05/2012 14:10 13,1 C 88 % 1002,8 hPa 0,0 mm 0,0 km/h (0 Bft) O-SO 247 0 min 0 W/m 11,2 C 13,1 C 0,0 km/h (0 Bft)
20/05/2012 14:20 12,9 C 88 % 1002,7 hPa 0,0 mm 0,4 km/h (0 Bft) SO 225 0 min 0 W/m 11,0 C 12,9 C 4,0 km/h (1 Bft)
20/05/2012 14:30 12,8 C 88 % 1002,5 hPa 0,0 mm 0,4 km/h (0 Bft) O-SO 247 0 min 0 W/m 10,9 C 12,8 C 3,2 km/h (1 Bft)
20/05/2012 14:40 12,8 C 88 % 1002,5 hPa 0,0 mm 0,7 km/h (0 Bft) NO 315 0 min 0 W/m 10,9 C 12,8 C 0,7 km/h (0 Bft)
20/05/2012 14:50 12,6 C 89 % 1002,5 hPa 0,0 mm 2,2 km/h (1 Bft) O-SO 247 0 min 0 W/m 10,8 C 12,6 C 3,2 km/h (1 Bft)
20/05/2012 15:00 12,5 C 89 % 1002,4 hPa 0,0 mm 2,5 km/h (1 Bft) S-SO 202 0 min 0 W/m 10,7 C 12,5 C 4,0 km/h (1 Bft)
20/05/2012 15:10 12,6 C 90 % 1002,3 hPa 0,0 mm 1,4 km/h (1 Bft) O-SO 247 0 min 0 W/m 11,0 C 12,6 C 2,9 km/h (1 Bft)
20/05/2012 15:20 12,7 C 90 % 1002,4 hPa 0,0 mm 0,7 km/h (0 Bft) O-SO 247 0 min 0 W/m 11,1 C 12,7 C 4,0 km/h (1 Bft)
20/05/2012 15:30 12,8 C 90 % 1002,5 hPa 0,0 mm 2,9 km/h (1 Bft) SO 225 0 min 0 W/m 11,2 C 12,8 C 6,1 km/h (2 Bft)
20/05/2012 15:40 12,8 C 90 % 1002,4 hPa 0,0 mm 2,2 km/h (1 Bft) SO 225 0 min 0 W/m 11,2 C 12,8 C 4,3 km/h (1 Bft)
20/05/2012 15:50 13,1 C 89 % 1002,5 hPa 0,0 mm 4,0 km/h (1 Bft) SO 225 0 min 0 W/m 11,3 C 13,1 C 9,4 km/h (2 Bft)
20/05/2012 16:00 12,9 C 88 % 1002,4 hPa 0,0 mm 2,2 km/h (1 Bft) S 180 0 min 0 W/m 11,0 C 12,9 C 4,3 km/h (1 Bft)
20/05/2012 16:10 12,9 C 89 % 1002,4 hPa 0,0 mm 0,4 km/h (0 Bft) O-SO 247 0 min 0 W/m 11,1 C 12,9 C 0,4 km/h (0 Bft)
20/05/2012 16:20 13,1 C 88 % 1002,4 hPa 0,0 mm 0,0 km/h (0 Bft) O-SO 247 0 min 0 W/m 11,2 C 13,1 C 0,0 km/h (0 Bft)
20/05/2012 16:30 13,1 C 88 % 1002,4 hPa 0,0 mm 5,8 km/h (2 Bft) O 270 0 min 0 W/m 11,2 C 13,1 C 8,3 km/h (2 Bft)
20/05/2012 16:40 12,8 C 88 % 1002,3 hPa 0,0 mm 1,4 km/h (1 Bft) SO 225 0 min 0 W/m 10,9 C 12,8 C 3,2 km/h (1 Bft)
20/05/2012 16:50 12,8 C 88 % 1002,3 hPa 0,0 mm 3,6 km/h (1 Bft) O-SO 247 0 min 0 W/m 10,9 C 12,8 C 10,1 km/h (2 Bft)
20/05/2012 17:00 12,8 C 88 % 1002,4 hPa 0,0 mm 0,7 km/h (0 Bft) SO 225 0 min 0 W/m 10,9 C 12,8 C 2,9 km/h (1 Bft)
20/05/2012 17:10 12,6 C 88 % 1002,2 hPa 0,0 mm 3,2 km/h (1 Bft) S-SO 202 0 min 0 W/m 10,7 C 12,6 C 6,5 km/h (2 Bft)
20/05/2012 17:20 12,4 C 89 % 1002,3 hPa 0,0 mm 0,4 km/h (0 Bft) O-NO 292 0 min 0 W/m 10,6 C 12,4 C 0,4 km/h (0 Bft)
20/05/2012 17:30 12,3 C 89 % 1002,4 hPa 0,0 mm 1,4 km/h (1 Bft) SO 225 0 min 0 W/m 10,5 C 12,3 C 4,3 km/h (1 Bft)
20/05/2012 17:40 12,1 C 90 % 1002,3 hPa 0,0 mm 1,1 km/h (1 Bft) NO 315 0 min 0 W/m 10,5 C 12,1 C 4,0 km/h (1 Bft)
20/05/2012 17:50 12,1 C 90 % 1002,3 hPa 0,0 mm 0,4 km/h (0 Bft) S-SO 202 0 min 0 W/m 10,5 C 12,1 C 3,6 km/h (1 Bft)
20/05/2012 18:00 12,0 C 90 % 1002,4 hPa 0,0 mm 0,0 km/h (0 Bft) O-SO 247 0 min 0 W/m 10,4 C 12,0 C 3,2 km/h (1 Bft)
20/05/2012 18:10 12,0 C 90 % 1002,4 hPa 0,0 mm 1,8 km/h (1 Bft) O-NO 292 0 min 0 W/m 10,4 C 12,0 C 4,3 km/h (1 Bft)
20/05/2012 18:20 12,0 C 90 % 1002,4 hPa 0,0 mm 0,4 km/h (0 Bft) O 270 0 min 0 W/m 10,4 C 12,0 C 0,4 km/h (0 Bft)
20/05/2012 18:30 11,9 C 90 % 1002,4 hPa 0,0 mm 0,4 km/h (0 Bft) O-SO 247 0 min 0 W/m 10,3 C 11,9 C 3,6 km/h (1 Bft)
20/05/2012 18:40 11,9 C 91 % 1002,4 hPa 0,0 mm 0,7 km/h (0 Bft) O-SO 247 0 min 0 W/m 10,5 C 11,9 C 3,2 km/h (1 Bft)
20/05/2012 18:50 11,9 C 91 % 1002,4 hPa 0,0 mm 0,7 km/h (0 Bft) S 180 0 min 0 W/m 10,5 C 11,9 C 0,7 km/h (0 Bft)
20/05/2012 19:00 11,9 C 91 % 1002,4 hPa 0,0 mm 0,0 km/h (0 Bft) S-SO 202 0 min 0 W/m 10,5 C 11,9 C 0,0 km/h (0 Bft)
20/05/2012 19:10 11,9 C 91 % 1002,4 hPa 0,0 mm 1,8 km/h (1 Bft) O 270 0 min 0 W/m 10,5 C 11,9 C 4,0 km/h (1 Bft)
20/05/2012 19:20 11,9 C 91 % 1002,4 hPa 0,0 mm 0,4 km/h (0 Bft) O-SO 247 0 min 0 W/m 10,5 C 11,9 C 3,6 km/h (1 Bft)
20/05/2012 19:30 11,8 C 91 % 1002,5 hPa 0,0 mm 0,0 km/h (0 Bft) O-SO 247 0 min 0 W/m 10,4 C 11,8 C 2,9 km/h (1 Bft)
20/05/2012 19:40 11,8 C 91 % 1002,5 hPa 0,0 mm 0,7 km/h (0 Bft) O-SO 247 0 min 0 W/m 10,4 C 11,8 C 0,7 km/h (0 Bft)
20/05/2012 19:50 11,7 C 91 % 1002,6 hPa 0,0 mm 0,4 km/h (0 Bft) SO 225 0 min 0 W/m 10,3 C 11,7 C 3,2 km/h (1 Bft)
20/05/2012 20:00 11,6 C 91 % 1002,7 hPa 0,0 mm 0,0 km/h (0 Bft) O-SO 247 0 min 0 W/m 10,2 C 11,6 C 0,0 km/h (0 Bft)
20/05/2012 20:10 11,6 C 92 % 1002,7 hPa 0,0 mm 0,0 km/h (0 Bft) O-SO 247 0 min 0 W/m 10,3 C 11,6 C 3,6 km/h (1 Bft)
20/05/2012 20:20 11,5 C 92 % 1002,7 hPa 0,0 mm 0,4 km/h (0 Bft) S 180 0 min 0 W/m 10,2 C 11,5 C 6,1 km/h (2 Bft)
20/05/2012 20:30 11,4 C 91 % 1002,8 hPa 0,0 mm 4,3 km/h (1 Bft) SO 225 0 min 0 W/m 10,0 C 11,4 C 8,3 km/h (2 Bft)
20/05/2012 20:40 11,4 C 92 % 1002,9 hPa 0,0 mm 4,7 km/h (1 Bft) O 270 0 min 0 W/m 10,1 C 11,4 C 6,1 km/h (2 Bft)
20/05/2012 20:50 11,3 C 92 % 1002,9 hPa 0,1 mm 0,7 km/h (0 Bft) S-SO 202 0 min 0 W/m 10,0 C 11,3 C 3,6 km/h (1 Bft)
20/05/2012 21:00 11,2 C 92 % 1002,9 hPa 0,0 mm 0,0 km/h (0 Bft) O 270 0 min 0 W/m 9,9 C 11,2 C 0,0 km/h (0 Bft)
20/05/2012 21:10 11,1 C 92 % 1003,0 hPa 0,0 mm 0,0 km/h (0 Bft) O 270 0 min 0 W/m 9,8 C 11,1 C 0,0 km/h (0 Bft)
20/05/2012 21:20 11,1 C 92 % 1003,0 hPa 0,0 mm 3,6 km/h (1 Bft) O-SO 247 0 min 0 W/m 9,8 C 11,1 C 6,5 km/h (2 Bft)
20/05/2012 21:30 11,1 C 93 % 1003,0 hPa 0,0 mm 1,4 km/h (1 Bft) SO 225 0 min 0 W/m 10,0 C 11,1 C 4,0 km/h (1 Bft)
20/05/2012 21:40 11,0 C 93 % 1002,9 hPa 0,0 mm 1,8 km/h (1 Bft) SO 225 0 min 0 W/m 9,9 C 11,0 C 4,3 km/h (1 Bft)
20/05/2012 21:50 10,9 C 93 % 1002,9 hPa 0,0 mm 0,0 km/h (0 Bft) SO 225 0 min 0 W/m 9,8 C 10,9 C 0,0 km/h (0 Bft)
20/05/2012 22:00 10,9 C 93 % 1003,1 hPa 0,0 mm 1,4 km/h (1 Bft) SO 225 0 min 0 W/m 9,8 C 10,9 C 3,6 km/h (1 Bft)
20/05/2012 22:10 10,9 C 93 % 1003,1 hPa 0,0 mm 0,7 km/h (0 Bft) SO 225 0 min 0 W/m 9,8 C 10,9 C 3,2 km/h (1 Bft)
20/05/2012 22:20 10,8 C 93 % 1003,3 hPa 0,0 mm 2,2 km/h (1 Bft) S-SO 202 0 min 0 W/m 9,7 C 10,8 C 2,2 km/h (1 Bft)
20/05/2012 22:30 10,9 C 93 % 1003,6 hPa 0,0 mm 0,0 km/h (0 Bft) O-SO 247 0 min 0 W/m 9,8 C 10,9 C 0,0 km/h (0 Bft)
20/05/2012 22:40 10,9 C 93 % 1003,8 hPa 0,0 mm 1,1 km/h (1 Bft) S-SO 202 0 min 0 W/m 9,8 C 10,9 C 4,3 km/h (1 Bft)
20/05/2012 22:50 10,8 C 93 % 1003,8 hPa 0,0 mm 0,4 km/h (0 Bft) S-SO 202 0 min 0 W/m 9,7 C 10,8 C 3,2 km/h (1 Bft)
20/05/2012 23:00 10,9 C 93 % 1003,7 hPa 0,0 mm 1,8 km/h (1 Bft) SO 225 0 min 0 W/m 9,8 C 10,9 C 4,0 km/h (1 Bft)
20/05/2012 23:10 10,9 C 93 % 1003,8 hPa 0,0 mm 2,9 km/h (1 Bft) S-SO 202 0 min 0 W/m 9,8 C 10,9 C 4,0 km/h (1 Bft)
20/05/2012 23:20 10,9 C 93 % 1003,8 hPa 0,0 mm 0,4 km/h (0 Bft) SO 225 0 min 0 W/m 9,8 C 10,9 C 4,0 km/h (1 Bft)
20/05/2012 23:30 10,8 C 93 % 1003,9 hPa 0,0 mm 1,8 km/h (1 Bft) S-SO 202 0 min 0 W/m 9,7 C 10,8 C 4,0 km/h (1 Bft)
20/05/2012 23:40 10,8 C 93 % 1004,1 hPa 0,0 mm 1,1 km/h (1 Bft) S-SO 202 0 min 0 W/m 9,7 C 10,8 C 4,0 km/h (1 Bft)
20/05/2012 23:50 10,8 C 93 % 1004,1 hPa 0,0 mm 2,9 km/h (1 Bft) SO 225 0 min 0 W/m 9,7 C 10,8 C 4,3 km/h (1 Bft)
_ Min-Heure 23:50 11:20 17:10 - 22:30 - - - - 23:50 23:50 22:30
Minimum _ 10,8 C 85 % 1002,2 hPa - 0,0 km/h (0 Bft) - - - - 9,7 C 10,8 C 0,0 km/h (0 Bft)
_ Max-Heure 11:00 23:50 00:00 20:50 16:30 - - 23:50 23:50 10:50 11:00 16:50
Maximum _ 15,2 C 93 % 1006,2 hPa 0,1 mm 5,8 km/h
O (2 Bft)
- - 0 min 0 W/m 13,3 C 15,2 C 10,1 km/h
O-SO (2 Bft)
Moyenne _ 12,3 C 90 % 1003,4 hPa #1,9 mm 0,9 km/h (0 Bft) S-SE - #0 min. 0 W/m 10,8 C 12,3 C 2,5 km/h (1 Bft)
Saint Bonnet de Bellac- Haute Vienne - France